Powrót do katalogu

STARLINK-5410

AktywnyŁącznośćVLEO
NORAD 54807·PAYLOAD·🇺🇸 United States

Wystrzelony Dec 17, 2022 z Cape Canaveral Space Force Station

Loading…

Następne Przeloty (najbliższe 24 godziny)

TLE

ŚwieżeSource: CelesTrak SupGP

Epoka: Sep 14, 2026, 21:41 UTC

1 54807C 22175BB  26257.90395833  .00015007  00000+0  44344-3 0  2574
2 54807  53.1582 245.6549 0001355  91.7987 343.9551 15.34379465    18

Śledź STARLINK-5410 w czasie rzeczywistym z AllMySat

Download on the App Store